GFSNW_925_rhum_210.txt.gz
RH
79 64 52 47 44 39 59 63 65 62 71 76 51 58 54 55 48 42 46 44 42 42 40 41 36 31 44 38 41 48 49 53 66 47 40 37 40 43 39 80 72 84 87 70
67 54 44 49 52 64 85 62 55 58 68 66 61 54 50 52 50 48 46 49 45 48 49 50 37 40 42 43 46 54 48 56 76 53 56 52 50 41 42 47 52 72 85 67
58 53 50 50 50 45 82 67 65 61 57 51 54 50 48 52 54 53 48 51 47 50 48 42 47 41 46 41 45 54 55 54 60 66 52 47 56 50 47 50 68 61 56 51
56 58 59 44 52 48 80 58 61 63 62 60 56 53 52 53 51 50 48 55 59 63 68 57 55 60 57 47 48 49 56 72 62 54 50 52 56 57 54 61 55 67 50 48
62 64 61 44 53 55 74 77 65 55 54 44 51 57 45 54 53 52 55 67 67 60 75 62 76 66 70 67 47 51 50 75 69 76 56 53 58 48 47 48 48 48 46 46
70 68 66 51 55 61 60 77 65 68 49 40 50 51 59 71 61 63 67 72 65 59 51 50 53 51 54 59 65 63 62 71 74 82 56 60 63 42 37 37 36 40 52 39
83 71 71 63 61 58 75 76 69 59 46 45 37 40 53 57 54 59 47 44 48 39 38 41 41 40 41 43 52 55 66 64 71 93 72 84 37 29 35 38 32 35 35 34
89 79 78 72 68 58 80 78 75 60 60 45 46 44 45 42 39 45 46 42 40 40 48 56 50 38 41 36 35 41 47 62 75 87 78 52 38 35 39 42 48 42 42 40
72 86 81 78 73 67 86 88 84 71 82 58 48 52 50 61 57 49 45 40 40 48 64 59 58 48 39 40 66 56 59 50 60 64 70 63 44 40 38 36 56 46 45 46
70 81 81 74 73 80 83 87 81 83 83 63 60 62 65 52 56 62 50 46 48 42 57 58 58 58 38 49 46 82 77 73 79 65 68 56 47 42 38 51 69 47 46 48
82 79 70 64 71 75 87 94 78 85 99 84 67 61 65 64 61 72 50 54 52 58 66 62 54 62 66 71 51 60 61 83 86 80 87 87 45 43 58 52 47 47 50 49
85 80 78 76 84 87 91 90 86 82 90 81 70 69 68 68 63 71 59 57 59 55 80 88 93 79 70 69 82 41 66 55 86 97 64 47 42 42 38 38 46 46 49 45
95 89 74 80 82 76 77 86 87 82 80 72 61 59 47 49 53 59 76 59 52 57 59 89 83 76 62 79 62 51 40 35 66 76 56 49 37 34 30 29 38 43 42 42
92 86 88 91 90 78 72 82 87 80 70 92 57 38 41 43 49 54 57 55 51 56 62 81 92 86 56 68 60 61 52 49 49 46 38 33 30 28 28 29 29 30 29 31
87 90 88 85 80 78 77 80 86 79 71 87 68 48 46 41 40 42 51 59 64 70 73 90 88 69 65 58 57 61 46 50 56 56 38 37 34 30 30 32 32 32 34 35
90 85 80 75 80 77 72 87 74 74 76 92 95 57 49 44 46 45 44 50 53 61 72 80 71 54 64 88 81 42 37 37 37 39 32 33 32 30 30 34 34 33 34 38
83 79 82 81 81 78 74 81 77 60 75 87 94 91 52 46 52 55 60 57 68 70 79 92 79 69 65 95 84 54 46 45 45 40 38 42 38 40 35 35 34 34 34 34
86 87 85 87 88 84 74 93 88 74 81 80 96 89 84 47 64 76 54 69 76 88 89 80 82 70 86 97 62 54 59 60 56 57 56 58 55 54 52 47 44 44 43 41
87 88 80 67 73 70 90 77 82 87 89 93 91 91 90 56 70 70 76 74 94 81 97 85 68 88 96 74 73 72 67 68 68 62 61 61 66 65 63 60 59 58 51 47
68 54 63 91 87 72 63 80 84 74 88 95 95 77 90 73 90 92 92 91 95 97 89 72 96 82 75 70 63 60 61 61 62 79 82 74 76 70 66 65 63 63 64 60
56 83 94 84 73 74 71 93 92 90 95 94 84 83 95 70 94 93 82 96 94 98 92 94 96 95 86 64 65 63 64 65 67 67 71 77 76 77 77 72 66 64 64 65
72 77 79 80 80 95 87 94 86 88 90 93 96 86 82 86 78 99 93 96 94 96 96 98 96 94 75 74 75 71 69 71 73 74 85 87 84 82 81 77 75 71 68 69
65 74 88 90 94 92 91 100 94 96 94 93 92 92 89 87 95 98 97 99 94 84 90 96 96 85 76 79 80 82 78 78 83 85 85 91 93 88 94 94 84 75 70 68
92 86 78 88 99 94 89 94 98 94 91 94 93 82 93 89 96 92 98 89 90 98 96 96 96 94 89 83 82 87 87 86 87 89 91 95 94 94 96 97 89 80 77 75
94 87 81 98 85 92 84 96 93 93 93 86 88 93 96 95 97 97 96 97 96 96 95 96 94 93 92 91 91 92 91 92 93 94 94 95 96 96 95 98 96 88 81 76
92 94 92 88 95 96 95 95 96 93 78 93 83 84 98 96 96 96 96 96 96 97 97 97 94 92 93 94 93 94 93 93 94 95 95 95 95 96 97 97 97 98 98 99
86 95 88 91 92 93 91 88 92 77 87 94 95 100 91 93 97 96 98 96 96 96 98 97 96 96 95 94 94 94 94 94 95 94 95 95 97 96 93 93 96 97 98 98

GFSNW_925_rhum_216.txt.gz
RH
63 65 51 30 22 20 46 72 32 54 57 72 81 72 55 55 55 52 52 48 53 55 55 57 46 44 51 44 45 53 52 66 81 63 45 45 61 60 67 84 71 89 93 79
67 64 43 27 21 27 62 81 73 50 58 69 78 60 54 53 53 57 57 58 57 53 59 63 55 47 48 50 48 54 52 63 86 54 58 51 53 48 48 55 68 76 85 60
74 60 39 28 23 29 66 73 45 69 74 73 64 65 59 57 52 56 55 58 58 63 66 57 62 59 62 61 50 54 54 70 66 64 48 65 70 62 61 62 76 72 66 56
80 57 36 32 28 31 73 76 74 68 46 70 65 58 62 61 58 54 50 69 69 70 75 71 67 73 70 58 54 59 62 86 78 75 72 72 73 74 68 71 67 79 64 62
85 54 36 34 29 44 66 79 72 81 70 58 55 60 64 65 69 65 64 74 72 63 72 72 80 70 70 76 68 67 68 85 83 88 75 73 74 66 64 64 61 61 59 61
85 46 38 39 34 52 69 77 74 44 43 54 60 63 65 74 61 66 70 69 61 71 66 50 51 54 55 59 73 78 78 81 85 86 79 58 51 53 51 50 53 61 67 56
84 48 46 46 42 42 59 71 68 65 28 58 54 52 60 71 66 63 63 44 49 45 46 52 53 59 58 55 55 60 79 75 80 95 78 90 40 42 45 62 60 62 60 62
84 60 51 51 47 52 65 69 64 75 56 61 54 47 50 49 52 52 48 45 43 48 55 67 62 52 42 46 56 60 61 78 89 100 96 70 50 49 52 55 63 61 61 58
83 65 59 56 56 55 57 64 71 68 76 57 56 56 53 67 67 61 50 45 46 56 71 73 74 62 46 46 62 67 61 72 82 90 94 90 47 49 50 51 78 79 59 51
87 74 73 70 65 59 62 75 74 67 81 79 66 67 66 60 67 72 66 59 51 48 65 65 70 70 64 66 73 83 85 86 92 88 90 80 60 59 56 69 94 65 61 42
94 94 82 82 81 70 80 90 80 70 92 84 76 68 68 72 71 78 63 62 65 68 73 75 86 92 91 84 70 64 77 92 95 90 95 91 78 66 85 58 54 58 52 44
96 84 87 86 83 84 87 90 88 82 76 78 77 65 59 68 65 78 79 69 72 72 91 98 93 87 86 79 81 57 58 64 66 80 85 51 45 65 60 51 43 38 38 36
89 98 96 95 87 95 90 86 86 75 81 69 61 56 41 55 61 64 84 80 69 76 76 92 89 97 80 87 84 64 53 57 65 62 47 44 39 36 40 37 39 38 35 37
98 99 96 85 94 98 86 83 81 60 81 83 51 45 39 41 41 46 61 61 62 70 81 89 97 97 72 86 73 81 66 58 60 66 50 51 45 46 44 44 42 44 42 41
99 98 99 96 94 88 81 76 79 59 42 69 70 57 47 46 45 49 59 65 73 83 88 99 90 88 76 80 79 89 58 61 70 77 59 65 66 58 55 65 66 62 63 61
98 100 98 87 78 69 38 86 65 69 63 85 78 65 57 50 49 50 50 65 78 79 82 89 83 72 72 95 92 68 65 73 66 82 68 69 66 62 59 61 60 59 62 63
100 92 94 92 81 63 71 70 50 62 65 86 90 91 60 56 55 68 69 59 69 77 84 96 80 77 81 98 99 93 81 73 64 59 67 69 62 71 63 64 62 63 63 62
95 90 88 91 72 65 73 82 65 64 77 80 97 91 78 55 64 76 75 83 89 94 91 94 98 84 93 97 91 79 74 69 68 68 68 72 70 68 65 65 66 69 70 67
86 86 91 67 69 85 90 88 84 82 77 93 95 93 81 67 79 82 82 83 100 89 99 96 84 94 96 92 95 85 75 82 84 77 74 70 69 72 69 70 73 75 74 71
93 61 65 99 97 83 83 74 81 90 91 96 95 91 88 84 95 92 95 98 98 98 89 90 98 93 93 79 75 72 77 78 81 91 84 83 82 79 80 80 76 73 72 70
45 83 99 91 80 70 79 93 88 93 93 96 89 88 94 82 93 96 90 97 100 100 92 96 96 95 89 82 78 74 80 83 83 83 82 85 91 93 91 85 76 76 78 77
51 73 74 73 82 90 81 94 92 89 85 95 98 94 90 90 90 98 96 98 96 100 91 97 96 95 89 86 83 84 84 83 83 83 89 88 88 91 94 90 85 86 90 93
37 60 84 86 92 91 78 96 95 97 94 98 92 86 93 88 92 99 97 96 98 90 98 96 98 91 83 88 87 86 84 84 84 86 87 88 89 87 92 93 92 95 96 98
83 75 80 78 89 86 89 86 93 97 95 96 96 95 91 99 92 93 96 90 95 98 96 97 98 95 94 94 87 90 92 90 90 91 93 92 93 93 93 96 97 96 95 97
89 76 72 92 86 94 97 98 97 99 96 96 95 94 97 99 96 98 95 95 96 96 96 96 97 96 98 97 95 95 94 94 93 95 94 94 94 94 92 96 97 97 96 96
85 83 90 92 94 97 97 99 97 98 98 97 94 95 99 99 98 97 100 96 96 97 98 98 99 98 97 98 96 97 98 97 96 97 96 96 95 96 96 96 96 96 97 96
89 98 94 93 95 95 96 97 99 90 93 98 98 100 94 94 97 99 97 98 97 98 97 98 98 99 98 98 96 97 98 97 97 98 96 96 97 93 92 93 96 97 97 97

GFSNW_925_rhum_219.txt.gz
RH
89 80 70 40 22 14 27 61 21 45 49 66 84 70 55 53 55 54 54 52 55 58 57 61 51 46 52 52 48 52 52 72 85 70 48 48 63 62 70 90 80 90 92 81
92 86 74 42 22 18 50 73 73 48 48 52 75 59 56 56 53 56 58 60 58 55 61 65 57 53 54 62 54 54 51 62 84 56 57 52 57 52 52 64 71 83 88 67
95 90 80 46 24 20 60 63 39 59 78 76 62 61 57 57 52 56 56 61 60 64 69 60 66 65 63 63 58 62 58 72 67 71 53 69 77 70 69 71 89 79 73 65
94 94 85 49 26 20 58 68 60 70 35 60 66 58 63 63 59 57 59 67 69 70 76 74 68 73 68 57 62 62 68 86 80 76 76 77 78 80 77 81 73 89 62 64
96 96 91 51 29 21 57 61 59 79 70 63 55 59 55 66 65 65 63 74 74 67 75 73 79 64 64 71 73 72 75 87 83 80 70 79 72 58 59 64 68 73 69 72
99 100 93 52 31 26 64 82 75 38 39 62 60 56 56 67 62 67 72 71 62 69 71 60 55 56 54 58 65 72 71 81 87 84 76 66 56 42 50 50 59 67 84 74
100 100 99 55 38 29 49 60 59 36 17 56 61 53 64 74 66 64 62 48 50 45 46 51 53 63 64 64 65 64 71 78 81 95 82 83 38 46 50 63 86 86 69 54
100 100 100 63 48 35 52 61 60 58 34 57 53 48 49 50 52 54 49 46 43 49 57 65 63 48 44 55 59 64 64 74 85 99 96 69 50 60 63 66 92 98 80 56
100 100 100 70 59 48 57 63 58 56 58 44 54 57 54 65 68 62 52 48 48 53 64 69 71 57 51 50 67 66 68 73 78 92 90 89 64 80 61 62 89 76 79 79
100 100 97 80 70 58 58 73 66 61 69 71 65 67 68 62 66 66 66 64 52 48 62 60 65 69 70 74 86 86 86 89 90 90 90 84 79 73 60 83 90 76 73 77
100 100 99 88 86 82 70 87 80 69 95 84 76 68 70 71 68 68 58 57 66 68 72 72 80 94 92 86 72 67 84 93 96 92 96 95 59 51 67 72 71 68 60 45
100 98 98 100 91 83 80 94 87 81 82 80 76 69 65 66 60 70 80 64 70 72 91 98 93 88 87 80 77 56 58 65 74 86 79 50 42 41 48 58 59 48 48 44
99 97 99 89 99 95 88 95 96 83 82 72 64 60 50 60 67 67 86 84 72 74 74 87 86 93 83 89 86 68 53 58 70 59 44 52 53 47 53 54 58 54 50 63
98 98 97 100 96 99 100 100 92 69 82 77 54 48 43 42 41 56 65 60 65 74 81 88 94 93 73 88 71 81 66 61 64 67 56 67 53 52 61 63 63 64 58 58
95 99 100 97 96 100 100 96 96 65 44 75 72 56 50 47 45 52 64 67 77 81 82 95 96 89 84 84 82 90 71 78 86 90 70 78 70 62 62 70 66 62 64 66
100 96 89 94 100 98 96 82 72 59 43 77 78 66 56 53 52 52 65 70 80 84 83 87 84 75 74 94 91 86 84 82 79 90 73 70 69 64 61 68 68 66 66 65
95 100 100 99 94 83 70 66 56 65 47 82 85 87 60 59 62 72 68 66 73 79 84 94 80 80 82 98 99 89 84 79 72 65 75 70 64 77 70 70 66 65 66 66
99 99 98 70 61 65 76 86 70 61 71 76 93 88 79 59 67 78 79 83 87 92 87 96 98 86 93 98 92 87 81 76 77 72 72 77 74 71 66 67 68 72 75 71
99 97 90 65 66 83 97 88 72 67 65 92 93 81 82 70 86 84 85 86 98 92 97 95 89 96 96 92 96 93 87 88 87 82 77 73 75 74 69 72 76 78 75 71
93 66 67 98 98 98 76 59 78 91 90 94 94 87 86 81 93 91 94 96 97 98 88 90 98 93 94 86 86 86 83 84 85 92 86 84 82 80 81 80 78 82 84 83
50 86 98 100 94 66 76 91 89 94 91 95 89 85 90 83 92 95 91 98 95 100 92 96 96 96 90 88 85 80 85 89 90 87 86 85 89 92 90 84 82 84 87 89
48 74 78 72 79 89 77 96 92 89 85 92 96 93 90 92 90 96 96 99 95 100 88 97 96 96 89 87 84 86 88 90 88 87 88 88 87 92 94 93 92 93 93 95
37 53 80 83 92 81 68 90 95 96 92 97 90 89 92 89 93 96 97 95 99 90 96 97 95 93 85 92 89 89 89 89 88 90 90 90 91 89 93 94 92 94 95 96
77 72 70 78 85 86 88 88 93 96 93 92 92 96 94 99 89 99 100 92 94 96 97 95 98 98 95 92 90 93 95 93 94 93 96 95 94 94 91 96 97 96 94 96
82 77 78 92 89 96 97 97 97 97 94 93 93 94 93 98 94 97 94 96 98 95 93 98 98 97 98 98 97 98 96 96 97 98 97 97 97 95 93 97 97 97 96 96
85 86 93 92 94 97 96 97 100 95 95 93 92 98 96 98 99 96 100 97 98 95 99 97 100 99 100 100 98 97 97 97 98 98 99 99 98 96 96 91 97 97 97 96
88 98 89 91 93 95 96 96 98 93 91 99 98 100 92 94 100 100 97 97 96 99 97 99 100 100 100 98 96 95 94 94 94 96 99 96 96 93 92 92 96 97 97 97

GFSNW_925_rhum_222.txt.gz
RH
92 90 89 83 73 22 15 43 20 37 40 57 84 69 60 54 57 54 56 55 58 64 63 64 55 51 60 65 56 58 57 74 84 64 50 51 62 64 72 83 85 90 94 80
81 90 92 87 76 22 34 68 72 40 43 41 67 58 57 58 53 56 59 61 60 58 63 66 59 59 57 63 58 61 55 64 84 54 52 53 63 56 61 71 72 93 94 70
80 88 91 90 78 24 42 56 37 54 77 76 57 56 53 56 54 58 59 63 61 64 69 63 68 65 63 60 61 61 61 76 69 69 48 68 83 68 70 76 89 79 77 72
80 83 92 94 81 27 38 60 49 70 36 45 66 57 61 61 55 57 60 70 68 69 77 74 73 72 66 54 69 66 72 88 82 78 77 78 75 76 80 89 82 94 69 75
88 88 94 98 87 35 37 39 54 79 60 67 56 55 51 63 62 64 64 70 75 69 78 73 78 69 67 67 70 74 66 83 80 90 72 71 70 61 59 58 63 76 76 78
96 98 99 100 90 40 48 76 73 35 34 63 58 49 46 61 62 67 69 72 71 72 74 66 66 64 58 55 59 66 63 73 84 82 76 72 60 45 50 54 95 81 93 82
93 100 100 100 96 66 35 55 52 28 18 51 56 49 57 74 67 61 65 51 56 49 46 51 52 62 67 67 67 60 68 87 85 96 82 70 36 56 54 92 92 96 85 75
99 100 100 100 100 76 51 45 46 38 24 41 48 49 61 56 54 55 53 51 46 51 56 60 59 49 50 61 64 70 67 68 79 92 95 66 65 78 76 76 94 88 94 85
100 100 100 100 100 83 68 60 51 45 44 47 47 52 53 60 65 61 53 48 50 48 59 64 64 52 52 52 73 72 70 77 75 96 96 86 79 67 66 68 95 76 76 78
100 100 100 100 100 94 80 80 70 61 69 73 71 68 78 62 65 64 66 59 52 49 61 57 64 67 70 73 82 92 89 91 96 93 85 82 61 63 55 87 92 68 72 72
100 100 100 100 99 95 86 93 90 69 96 97 90 80 74 73 71 75 62 54 65 68 69 67 72 85 89 86 74 75 89 92 97 92 98 95 48 46 50 65 63 67 58 58
95 100 100 99 100 97 91 98 96 93 98 100 98 86 72 69 63 66 75 62 67 68 85 93 85 86 91 80 70 54 68 63 81 89 79 50 44 45 44 54 64 65 68 63
100 100 100 99 99 98 92 100 100 98 100 98 94 72 56 53 63 68 78 83 69 72 75 82 82 82 76 84 81 69 55 59 70 57 43 59 62 52 59 65 66 66 66 66
100 100 99 98 98 100 87 97 99 97 99 92 56 52 47 47 46 66 66 61 68 76 80 84 87 82 69 84 70 74 65 69 73 74 63 75 58 59 65 63 66 70 61 62
100 99 98 99 100 98 96 99 100 82 61 81 84 59 53 51 49 56 65 63 74 81 85 94 92 86 82 86 82 93 77 86 94 89 78 89 79 63 64 72 70 67 71 72
100 98 99 100 96 92 97 98 98 98 55 81 81 66 57 54 52 61 74 73 80 79 82 91 84 75 74 89 85 87 86 84 83 91 76 76 72 67 65 72 73 71 68 67
99 100 98 99 98 95 72 70 58 87 46 73 84 85 62 59 66 72 67 68 76 79 86 90 79 80 82 93 97 90 86 84 80 75 78 78 68 79 73 74 68 68 69 71
100 97 100 100 98 68 85 83 69 57 59 73 90 86 82 61 71 87 81 79 85 90 85 94 94 85 93 99 92 87 86 86 82 79 78 83 78 74 71 69 71 76 76 71
100 100 95 80 61 81 94 74 60 56 59 91 92 84 88 71 86 84 92 88 99 92 96 92 87 94 97 91 94 94 93 93 92 86 81 75 79 75 72 76 78 82 80 77
82 65 66 98 100 97 79 54 79 88 88 93 94 90 88 84 93 93 92 95 96 99 88 93 98 93 90 89 89 88 89 91 92 94 87 86 83 81 84 82 79 79 82 88
51 93 98 100 92 56 74 91 85 93 86 96 92 86 95 84 92 95 90 95 96 100 92 96 95 95 90 90 87 86 89 91 92 93 90 88 92 92 91 85 84 85 86 90
56 85 82 67 77 87 72 94 92 90 88 94 96 98 87 94 89 94 96 98 95 100 90 97 96 95 91 89 87 88 89 91 92 89 90 90 90 92 93 92 91 93 94 95
35 49 77 82 92 75 62 77 94 94 94 96 94 94 90 92 92 97 96 95 96 87 96 95 94 93 88 94 91 90 88 90 90 90 91 93 94 92 92 94 93 96 94 95
77 74 76 82 84 84 85 85 92 96 95 92 93 97 95 98 94 99 96 90 92 97 97 95 97 97 96 93 91 94 96 94 95 95 97 97 98 98 93 95 98 98 95 96
77 76 77 92 91 97 98 97 95 96 93 95 94 94 91 96 94 95 92 94 99 94 94 97 98 98 98 98 98 98 98 99 99 97 100 99 99 99 97 98 98 98 97 96
86 87 93 92 93 97 97 97 99 95 94 92 90 96 92 98 98 93 100 97 99 94 97 98 99 98 100 100 100 99 97 95 95 94 96 98 98 98 98 96 96 100 99 98
88 98 89 92 95 97 97 96 97 90 92 97 95 88 86 94 100 100 96 97 95 96 96 96 98 100 99 100 99 96 93 93 92 94 94 93 90 91 96 94 96 97 97 97

GFSNW_925_rhum_225.txt.gz
RH
78 81 82 90 83 75 22 31 20 29 33 52 84 67 60 54 56 54 54 56 59 64 64 65 58 52 58 64 58 57 59 73 83 60 51 53 62 64 70 84 84 90 90 75
71 79 84 93 88 78 21 56 60 27 36 39 58 55 56 58 53 56 58 61 61 60 64 65 61 58 56 62 61 64 57 67 83 49 53 54 61 57 65 73 74 90 86 64
69 76 84 93 92 81 23 46 35 48 75 74 51 48 48 53 54 59 61 63 62 66 68 64 68 64 63 60 66 63 66 79 67 56 44 62 76 70 70 75 91 76 74 61
72 79 85 90 97 85 30 54 39 64 35 38 63 53 57 55 48 57 60 66 69 67 74 72 74 71 67 55 70 70 76 91 84 79 78 78 79 77 76 86 77 88 73 79
90 86 87 93 100 89 35 30 48 74 45 65 55 52 47 54 54 60 62 71 71 69 77 68 69 70 69 67 65 69 58 74 73 76 57 66 69 62 66 63 66 84 80 76
99 99 97 100 100 95 38 62 66 40 44 62 48 39 36 53 60 60 66 68 77 79 76 70 69 68 65 55 58 62 59 67 80 75 72 71 60 54 48 71 94 90 94 78
85 93 99 100 100 99 71 52 53 31 34 52 52 40 46 60 67 60 65 60 60 50 47 50 53 61 65 68 69 59 68 84 85 91 77 66 42 71 69 87 90 94 89 79
100 100 100 100 100 100 90 64 52 47 33 35 38 44 60 63 57 61 59 59 50 52 53 56 52 50 56 68 68 71 66 72 72 89 89 61 77 63 71 83 94 69 67 70
100 100 100 100 100 100 98 88 65 52 58 49 46 60 67 80 68 59 56 49 52 46 56 57 56 45 48 56 83 72 71 73 70 94 91 75 76 54 57 69 93 66 76 71
100 100 100 100 100 100 100 94 80 78 94 89 80 91 91 81 78 66 67 57 54 48 60 54 57 65 65 69 74 90 90 91 94 91 92 75 50 49 51 92 80 68 67 64
80 100 100 100 100 100 100 99 91 82 97 99 91 90 98 95 86 80 68 59 62 67 73 70 64 73 80 87 73 85 85 92 94 91 96 94 50 43 48 55 65 68 68 65
59 63 79 100 100 100 99 98 99 92 95 100 100 99 84 69 65 78 78 66 86 83 80 87 82 83 93 78 64 54 76 76 82 81 73 52 49 53 53 63 71 69 68 70
57 88 100 100 99 100 93 99 99 95 100 100 100 98 89 73 66 69 84 85 70 70 70 79 78 78 70 79 78 66 56 61 68 54 47 67 70 59 64 65 67 66 72 69
94 98 100 100 99 100 89 93 94 85 92 95 76 57 51 52 58 77 72 66 71 75 77 80 83 72 69 76 68 70 64 69 74 74 67 72 64 68 67 65 68 71 65 68
98 100 100 100 99 97 89 92 96 84 76 89 80 61 60 54 55 77 68 66 74 79 84 90 88 83 78 84 82 91 78 83 86 80 86 88 83 69 67 74 74 72 75 74
100 100 99 100 99 90 82 99 99 65 46 85 92 67 60 57 58 73 75 73 78 77 79 84 82 76 76 88 77 88 87 83 83 88 81 82 77 72 69 77 75 74 70 71
100 100 100 100 93 77 72 80 81 86 47 71 85 91 64 62 67 70 71 68 79 77 83 85 80 81 81 91 93 92 84 85 84 78 83 82 70 84 76 76 72 72 74 74
100 100 100 97 73 61 76 99 99 67 51 69 87 86 86 61 77 92 81 78 83 88 90 93 93 86 89 99 93 86 87 88 81 83 84 87 82 80 74 71 75 79 77 73
100 100 95 76 65 77 82 65 55 50 54 86 88 83 88 74 88 88 92 89 98 94 100 93 84 92 96 87 91 91 93 94 93 88 86 80 83 79 76 80 80 84 80 80
96 86 89 98 99 76 66 51 76 88 89 92 94 94 92 84 96 96 94 97 98 100 89 93 98 92 89 91 90 87 90 91 92 96 88 87 86 84 86 85 83 83 84 87
81 97 98 100 76 47 74 88 78 89 79 93 96 91 99 85 90 95 90 98 98 99 95 93 95 96 94 88 86 88 90 91 92 94 93 92 94 94 91 86 86 87 88 90
77 85 75 64 77 85 69 89 92 91 85 96 97 98 95 98 88 93 97 96 95 100 91 97 96 94 91 88 87 88 91 91 91 89 92 92 93 94 96 94 93 93 94 95
58 76 85 85 89 73 58 65 92 92 95 98 96 95 93 94 92 97 96 96 97 91 97 94 94 94 90 92 90 89 88 90 91 92 92 93 94 94 96 97 96 98 97 94
84 81 88 87 86 77 82 83 89 94 98 96 95 98 95 99 94 98 92 94 93 97 97 94 97 96 96 92 90 92 96 94 95 94 95 95 97 98 95 97 99 100 97 97
81 78 89 89 92 97 98 98 95 96 93 96 95 94 93 96 96 96 92 94 98 94 95 97 97 96 97 96 97 98 98 99 98 95 98 95 95 97 97 92 96 100 100 98
86 89 95 95 94 97 96 96 98 97 95 95 90 94 91 99 96 90 94 93 98 94 97 96 96 96 98 99 99 98 99 96 95 95 97 94 93 95 96 92 96 99 100 99
89 97 92 94 95 98 100 97 97 90 93 94 94 80 81 94 98 97 96 97 94 96 96 96 96 96 99 98 99 98 94 93 92 94 94 92 89 89 92 98 100 95 96 96

GFSNW_925_rhum_228.txt.gz
RH
64 73 77 78 79 77 61 27 29 16 26 30 48 45 52 53 50 48 49 51 52 52 54 50 46 42 46 51 53 50 50 51 52 37 44 46 52 49 47 54 64 71 74 50
62 70 70 79 81 83 51 38 35 17 28 29 33 47 51 54 50 50 49 53 55 54 54 45 49 49 49 51 55 54 50 46 46 38 50 50 53 52 52 57 59 64 60 41
68 72 75 78 84 85 51 34 44 36 48 52 30 28 36 42 54 54 56 54 56 57 55 55 51 52 55 51 55 64 60 56 40 32 27 44 55 54 54 56 63 51 50 43
79 78 80 82 87 90 64 39 37 53 45 34 42 41 40 39 38 54 54 58 59 53 51 55 57 58 54 52 58 58 55 49 55 54 55 60 66 64 59 69 61 65 40 44
92 93 92 89 92 95 78 40 49 54 33 52 48 43 35 38 40 45 50 56 55 58 54 40 37 56 56 47 49 58 44 51 58 55 39 43 54 44 45 50 51 50 50 54
84 98 100 100 100 100 64 59 54 48 59 52 40 35 30 39 51 56 63 59 61 67 58 53 51 50 47 45 46 46 47 46 53 46 55 50 41 44 42 49 57 60 65 65
99 99 94 98 100 100 93 61 56 64 76 52 46 36 39 52 61 57 65 65 60 46 41 41 46 49 50 51 51 50 52 58 60 67 52 56 56 66 63 60 78 77 65 52
100 100 100 100 100 100 100 86 70 82 83 44 37 46 57 77 69 75 67 55 45 45 43 42 36 40 49 60 62 60 57 58 58 68 59 40 68 49 56 59 83 62 58 50
97 100 100 100 100 100 100 97 82 80 89 71 43 57 71 83 84 77 57 48 50 44 45 43 75 66 40 47 76 62 63 59 59 68 70 47 64 44 38 49 73 53 53 51
80 90 99 100 100 100 100 99 91 90 98 90 74 88 91 84 82 64 54 53 54 46 53 75 83 71 53 56 62 79 79 75 77 66 67 55 43 39 49 74 65 53 53 52
69 70 82 99 100 100 100 99 99 91 98 97 93 90 93 96 80 80 63 62 60 58 83 88 52 58 62 79 62 71 71 76 75 70 77 77 44 36 45 57 50 50 48 50
65 64 62 70 100 100 100 98 100 98 96 100 99 99 89 74 67 69 72 78 73 78 82 77 74 77 80 69 56 56 75 59 62 61 56 44 47 49 54 52 53 51 54 53
64 60 62 99 100 99 98 95 98 95 98 99 98 96 96 84 71 71 84 87 79 87 70 87 77 81 60 58 58 56 49 52 53 47 45 51 51 51 52 49 55 54 54 55
64 62 88 100 100 98 97 92 97 82 88 94 79 62 72 80 85 86 85 82 88 72 70 77 67 59 54 51 53 59 53 56 54 50 49 48 55 53 52 54 54 54 56 58
92 97 100 100 99 99 92 89 94 81 78 84 67 63 61 57 60 78 76 71 67 67 72 78 74 64 62 68 68 70 65 57 52 43 68 69 60 54 54 59 61 59 61 61
97 100 100 99 98 96 84 98 95 72 47 84 85 66 62 60 72 76 73 70 67 63 65 64 62 66 67 65 52 72 74 68 68 66 65 66 60 57 58 62 63 62 63 63
99 100 100 100 99 85 80 81 85 53 33 64 80 78 61 68 69 67 67 68 68 66 68 70 62 66 67 67 60 71 71 70 67 66 65 60 61 66 65 65 64 67 66 64
100 100 100 98 85 68 86 100 68 43 38 66 80 79 73 63 71 68 71 64 69 71 66 69 65 72 76 83 75 74 74 69 69 68 70 72 69 66 62 64 67 66 64 64
100 99 88 70 59 74 90 94 65 43 49 75 73 76 78 68 77 77 80 73 75 79 75 72 70 73 85 72 76 75 76 77 77 71 67 65 68 66 64 67 66 71 71 72
89 83 82 99 95 62 52 49 64 82 83 83 72 74 80 72 81 88 86 88 85 93 74 81 86 72 82 77 74 73 75 76 76 88 80 77 79 76 74 72 72 74 76 78
84 97 98 98 75 45 61 78 71 80 72 78 82 74 83 76 79 82 80 90 90 96 82 84 82 82 83 79 76 76 80 81 80 83 81 81 82 86 83 78 78 78 81 85
79 84 73 59 71 78 78 81 82 80 64 89 86 86 76 89 78 84 90 88 90 91 82 89 86 86 86 80 78 76 82 82 80 82 82 82 82 83 88 86 86 87 89 92
73 87 88 88 87 93 89 88 78 86 85 94 88 89 85 86 81 93 89 92 90 78 91 85 85 85 82 81 79 77 82 82 80 81 82 83 83 82 85 92 89 93 94 93
94 88 91 88 82 71 66 58 70 82 90 89 82 90 84 89 87 91 87 88 86 93 93 87 86 88 85 80 80 80 83 85 83 88 96 94 92 89 87 97 100 99 96 98
90 86 93 80 88 91 93 93 90 91 87 86 89 87 80 89 90 88 87 95 94 88 87 87 87 91 91 91 90 91 92 95 96 97 98 94 94 97 95 88 96 99 99 97
88 87 90 86 87 94 91 91 94 89 81 82 80 83 83 90 88 87 85 85 87 89 90 89 88 91 92 94 97 97 99 96 95 95 96 95 94 95 93 86 92 98 100 99
87 95 87 89 90 94 94 87 89 92 80 81 81 70 76 91 92 90 88 90 88 90 87 85 87 91 93 98 98 98 96 93 92 94 94 93 89 86 90 98 95 94 99 100